Snowfall_Accumulation
0.9 1.0 1.3 1.2 1.3 1.4 1.7 1.7 1.7 1.8 1.9 1.6 1.6 1.8 1.5 1.1 1.1 1.0 1.2 1.4 1.3 1.1 1.2 1.1 0.9 1.0 1.1 1.1 0.8 0.8 1.0 1.3 2.0 0.8 0.4 0.2 0.1 0.3 0.4 0.3 0.2 0.1 0.1
1.2 1.2 1.4 1.1 1.2 1.4 1.4 1.7 1.9 1.8 1.7 2.0 1.8 1.7 1.7 1.5 1.4 1.6 1.2 1.2 1.5 1.4 1.3 1.2 1.3 1.3 1.4 1.6 1.2 1.3 1.2 1.2 1.9 1.9 1.0 0.7 0.6 0.5 0.5 0.5 0.4 0.3 0.2
1.3 1.4 1.5 1.4 1.3 1.2 1.3 1.7 1.0 1.1 1.2 1.3 1.5 1.8 1.7 2.0 1.8 1.5 1.5 1.3 1.5 1.4 1.6 1.5 1.7 1.6 2.0 1.7 1.3 1.5 1.4 1.3 1.7 2.4 1.9 1.1 1.0 0.7 0.9 0.8 0.5 0.4 0.2
1.6 1.5 1.5 1.4 1.3 1.3 1.0 1.0 1.1 1.0 1.1 1.4 1.5 1.7 1.9 2.1 2.4 2.1 2.1 1.8 1.7 1.6 1.8 1.8 2.0 2.3 2.6 2.4 2.5 2.4 2.8 3.0 3.0 3.0 2.9 2.5 2.2 1.5 1.2 1.4 1.2 0.9 0.8
1.4 1.4 1.4 1.3 1.1 0.9 1.1 1.1 1.0 0.9 0.9 1.1 1.7 1.8 1.9 2.2 2.4 2.9 3.0 2.8 2.3 2.1 1.8 1.8 2.0 2.4 2.6 3.1 3.2 3.4 3.6 3.9 4.2 4.4 4.2 3.6 2.9 2.5 1.9 1.7 1.9 1.5 1.4
1.3 1.3 1.2 1.1 1.1 1.0 1.2 1.3 1.4 1.0 1.1 1.4 1.9 2.0 2.0 2.2 2.3 2.7 3.6 3.9 3.2 2.5 2.3 2.5 2.3 2.5 2.6 2.3 2.4 2.5 3.3 5.6 6.4 5.7 5.0 4.3 2.9 2.9 2.3 2.6 2.8 3.1 3.0
1.6 1.4 1.4 1.4 1.7 1.7 1.6 1.7 2.0 1.9 1.7 1.7 2.0 2.0 2.3 2.0 2.1 2.9 3.6 4.1 3.8 3.3 3.5 3.4 3.1 2.6 2.6 2.1 2.2 1.9 2.6 3.0 3.9 4.5 5.0 3.6 2.9 2.9 3.7 4.3 4.1 4.3 3.8
2.0 1.7 1.7 1.7 1.9 1.8 1.9 1.8 2.0 2.0 2.6 2.3 2.1 2.4 2.4 1.9 2.2 2.8 3.6 4.4 4.2 4.0 3.5 3.3 3.2 2.7 2.6 2.5 2.8 3.1 2.2 2.0 2.1 2.4 3.0 2.6 2.5 2.8 3.7 5.4 5.0 4.8 3.4
3.0 2.9 2.6 2.5 2.3 2.4 2.4 3.2 3.7 4.2 4.4 4.4 4.3 4.1 4.2 2.8 3.2 3.8 4.9 5.1 4.3 3.9 2.8 2.4 2.2 2.2 2.2 3.2 4.1 3.9 2.5 1.9 1.5 1.9 2.2 2.6 2.7 2.8 3.4 5.0 6.3 7.6 7.0
3.8 3.5 3.3 3.4 3.7 4.1 4.3 4.6 5.3 5.6 5.6 5.8 5.9 5.5 5.4 4.6 3.5 3.3 3.8 4.5 4.4 3.4 2.8 2.5 2.3 2.6 3.2 4.4 5.2 5.1 4.4 2.5 2.3 1.8 1.6 1.4 1.7 1.8 2.2 3.4 5.4 8.6 8.7
4.0 4.0 3.5 3.4 3.9 4.2 4.3 4.2 4.6 5.0 5.0 4.8 5.1 4.6 3.7 2.9 2.2 2.6 3.3 4.5 5.3 4.7 4.1 3.1 2.6 2.7 3.6 4.6 5.2 5.3 5.2 4.5 3.7 3.3 3.1 2.5 2.4 2.2 1.8 2.0 2.9 6.4 10.2
3.6 3.6 3.6 3.5 3.8 3.8 4.0 4.2 4.2 4.4 4.5 4.3 4.0 3.9 3.7 2.5 2.4 2.7 3.4 4.9 5.3 6.3 5.2 3.3 3.2 3.9 4.3 4.2 4.3 4.3 4.1 4.4 4.9 5.1 4.7 4.1 3.6 3.5 2.6 2.3 2.9 3.1 4.2
3.5 3.5 3.6 3.4 3.7 3.7 3.9 4.3 4.5 4.5 4.4 4.2 4.1 4.2 4.4 4.0 2.7 2.6 3.3 3.9 4.6 5.1 4.3 3.9 4.1 4.5 4.9 4.3 4.3 4.0 3.9 4.4 5.3 5.7 5.5 4.4 3.2 3.1 3.0 3.3 3.7 3.4 3.1
3.8 3.7 3.7 3.7 4.0 4.0 4.3 4.7 5.1 5.5 5.9 5.5 5.2 5.0 4.6 4.3 4.2 4.0 4.0 4.3 4.5 4.6 4.2 3.7 4.3 4.5 4.5 4.3 4.5 4.9 4.8 5.2 5.2 5.9 5.1 4.3 3.5 4.1 4.6 4.7 5.4 5.8 6.9
3.5 3.8 3.9 3.9 4.2 4.5 4.6 4.9 5.7 6.0 6.8 8.4 8.0 6.9 7.2 6.9 5.2 5.5 6.8 6.7 6.7 6.9 6.9 6.6 6.3 5.7 6.1 5.8 5.5 5.1 5.3 5.2 5.9 5.7 5.7 6.5 6.2 6.2 5.8 5.5 6.5 7.8 9.3
4.2 4.3 4.0 4.4 4.2 4.3 4.6 5.3 4.8 5.5 5.7 5.9 6.3 7.3 7.6 7.2 6.4 6.5 6.6 6.7 6.6 7.2 8.3 8.8 7.3 6.3 5.9 6.2 6.3 6.6 5.9 6.3 6.6 6.9 7.7 7.8 8.2 8.4 8.0 6.9 7.6 9.5 10.1
4.9 5.0 4.9 4.9 4.9 5.2 5.1 5.2 6.0 5.6 5.0 5.0 5.3 5.6 6.5 6.7 6.9 6.9 6.6 6.8 6.6 6.7 8.5 7.5 6.5 6.2 6.3 6.6 6.9 7.4 7.6 7.0 7.5 8.7 9.4 9.1 9.8 10.2 10.4 10.3 9.8 10.6 10.4
4.6 4.8 5.4 5.4 5.5 5.6 5.5 5.7 5.5 5.9 6.3 6.3 5.6 5.2 5.7 6.1 6.7 7.1 6.8 7.4 7.8 6.8 6.9 6.8 6.5 6.2 6.7 6.9 7.5 8.2 7.9 7.6 8.3 9.4 9.8 9.9 10.7 11.8 12.4 11.7 10.8 11.2 11.6
4.7 5.1 5.6 5.8 5.6 5.8 5.9 6.2 6.4 6.2 6.3 6.4 6.5 6.9 6.7 6.7 6.2 6.6 6.9 8.0 8.5 8.0 7.0 6.8 7.0 7.2 7.5 8.0 8.3 8.9 9.4 9.6 9.5 10.3 10.5 10.5 11.5 12.8 13.0 11.4 11.6 11.9 12.9
4.9 5.3 5.8 6.0 5.9 5.9 6.3 6.9 7.0 7.0 6.7 6.5 6.7 7.5 8.0 8.2 8.4 8.1 7.6 7.8 8.1 8.0 7.0 7.2 7.4 7.8 8.4 9.0 9.1 9.8 10.2 9.6 10.2 10.7 10.7 10.8 11.2 12.7 12.8 12.0 12.6 13.5 12.6
5.1 5.3 5.5 5.7 6.0 6.2 6.7 7.0 7.1 7.2 7.3 7.1 7.1 7.3 8.8 10.0 9.3 8.3 8.4 8.1 8.0 8.3 8.5 8.4 8.4 8.4 8.8 9.2 9.8 10.0 10.2 9.9 9.7 10.8 10.9 11.2 12.0 13.1 12.0 12.6 12.6 12.9 13.8
5.7 6.1 6.1 6.6 6.6 7.1 7.6 7.5 7.6 7.3 7.0 6.8 6.9 6.9 7.3 7.8 7.9 8.0 8.1 8.0 7.8 8.3 8.7 9.2 9.2 8.4 8.9 10.2 11.4 11.8 10.8 9.9 9.4 10.4 11.7 11.7 12.1 12.7 13.0 13.4 13.7 14.4 14.9
6.2 6.4 6.5 6.6 7.0 7.3 7.5 7.3 7.2 7.1 7.2 6.9 6.7 6.9 7.2 7.3 7.1 7.6 7.6 7.6 7.5 7.6 7.9 8.3 8.7 8.2 8.0 9.0 10.2 12.3 12.9 11.3 9.9 11.4 13.9 14.2 13.8 14.1 14.9 15.0 14.3 14.3 13.4
6.6 6.8 7.0 7.1 7.1 7.1 7.3 7.0 7.2 7.3 7.2 7.3 7.2 6.9 7.0 7.1 6.8 7.1 7.3 7.5 7.8 7.7 7.7 7.9 8.3 7.9 8.0 9.2 8.9 9.7 10.5 11.8 13.9 15.6 17.3 19.7 18.7 16.5 16.0 15.2 13.7 13.1 13.0
6.4 6.7 6.9 7.3 7.5 7.7 7.5 7.5 7.3 7.1 7.4 7.5 7.3 7.2 7.1 6.8 7.0 6.7 6.8 7.2 7.3 7.5 7.2 7.3 7.8 8.0 8.0 8.5 8.9 8.9 9.3 11.2 14.9 19.8 22.2 21.6 18.8 16.0 15.9 15.1 13.8 13.4 13.5
6.3 6.6 7.1 7.2 7.5 7.6 7.7 7.8 7.7 7.5 7.9 8.1 8.2 8.0 8.0 7.9 7.6 7.4 7.6 7.8 8.2 7.6 7.5 7.1 7.2 7.8 8.1 8.4 8.4 8.5 9.4 10.9 12.0 14.8 20.3 22.2 19.4 16.2 15.9 16.9 15.3 14.9 14.9